This is the latest recevied weather packets stored in our database for station/object DO7CRZ-12. If no packets are shown the sender has not sent any weather packets the latest 10 day(s).
| Time | Temp. | Humidity | Pressure | Rain* | Wind** | Luminosity | Snow |
|---|---|---|---|---|---|---|---|
| 1777657040 | 25° C | 20% | 1024.9 hPa | 0 mm | - | 18 W/m² | - |
| 1777656437 | 26.67° C | 17% | 1024.9 hPa | 0 mm | - | 23 W/m² | - |
| 1777655849 | 28.89° C | 18% | 1025 hPa | 0 mm | - | 35 W/m² | - |
| 1777655246 | 31.67° C | 14% | 1025.1 hPa | 0 mm | - | 122 W/m² | - |
| 1777654643 | 31.67° C | 14% | 1025.2 hPa | 0 mm | - | 135 W/m² | - |
| 1777653438 | 32.22° C | 13% | 1025.2 hPa | 0 mm | - | 171 W/m² | - |
| 1777652850 | 32.22° C | 13% | 1025.1 hPa | 0 mm | - | 188 W/m² | - |
| 1777652247 | 32.22° C | 13% | 1025.2 hPa | 0 mm | - | 197 W/m² | - |
| 1777651644 | 32.22° C | 13% | 1025.3 hPa | 0 mm | - | 190 W/m² | - |
| 1777650439 | 32.22° C | 13% | 1025.5 hPa | 0 mm | - | 185 W/m² | - |
| 1777649836 | 31.67° C | 14% | 1025.4 hPa | 0 mm | - | 191 W/m² | - |
| 1777649248 | 30.56° C | 16% | 1025.6 hPa | 0 mm | - | 205 W/m² | - |
| 1777648645 | 29.44° C | 18% | 1025.7 hPa | 0 mm | - | 228 W/m² | - |
| 1777647440 | 27.78° C | 16% | 1025.8 hPa | 0 mm | - | 276 W/m² | - |
| 1777646837 | 28.89° C | 18% | 1025.9 hPa | 0 mm | - | 299 W/m² | - |
| 1777646249 | 29.44° C | 18% | 1026 hPa | 0 mm | - | 325 W/m² | - |
| 1777645646 | 28.33° C | 19% | 1025.9 hPa | 0 mm | - | 334 W/m² | - |
| 1777645044 | 28.89° C | 18% | 1026.2 hPa | 0 mm | - | 347 W/m² | - |
| 1777644440 | 28.33° C | 20% | 1026.1 hPa | 0 mm | - | 364 W/m² | - |
| 1777643838 | 28.33° C | 19% | 1026.2 hPa | 0 mm | - | 379 W/m² | - |
| 1777643235 | 28.33° C | 20% | 1026.3 hPa | 0 mm | - | 397 W/m² | - |
| 1777642647 | 27.78° C | 19% | 1026.4 hPa | 0 mm | - | 411 W/m² | - |
| 1777641442 | 28.33° C | 18% | 1026.6 hPa | 0 mm | - | 444 W/m² | - |
| 1777640839 | 28.89° C | 19% | 1026.8 hPa | 0 mm | - | 491 W/m² | - |
| 1777640235 | 29.44° C | 19% | 1027 hPa | 0 mm | - | 551 W/m² | - |
* Rain latest hour (hover to see other rain measurements)
** Current wind speed in m/s (hover to see current wind gust speed)